Weather History for K1A5 - January, 2008

Change the Weather History Date:

Tuesday, January 8, 2008

  Actual Average (KTOC) Record (KTOC)
Temperature  
Mean Temperature 57 °F -  
Max Temperature 64 °F 51 °F 48 °F (2014)
Min Temperature 50 °F 31 °F 10 °F (2015)
Degree Days  
Heating Degree Days 8    
Growing Degree Days 7 (Base 50)    
Moisture  
Dew Point 51 °F    
Average Humidity 73    
Maximum Humidity 87    
Minimum Humidity 63    
Precipitation  
Precipitation 0.00 in - - ()
Sea Level Pressure  
Sea Level Pressure 30.21 in    
Wind  
Wind Speed 4 mph (SE)    
Max Wind Speed 10 mph    
Max Gust Speed 21 mph    
Visibility 10 miles    
Events      
Averages and records for this station are not official NWS values.
T = Trace of Precipitation, MM = Missing Value Source: NWS Daily Summary

Daily Weather History Graph

Daily Weather History Graph

Search for Another Location

Airport or City:

Trip Planner

Search our weather history database for the weather conditions in past years. The results will help you decide how hot, cold, wet, or windy it might be!

Date:

Astronomy

Jan. 08, 2008 Rise Set
Actual Time 7:42 AM EST 5:37 PM EST
Civil Twilight 7:14 AM EST 6:05 PM EST
Nautical Twilight 6:43 AM EST 6:37 PM EST
Astronomical Twilight 6:12 AM EST 7:07 PM EST
Moon 8:04 AM EST (1/8) 5:50 PM EST (1/8)
Length of Visible Light 10h 50m
Length of Day
9h 55m
New Moon, 0% of the Moon is Illuminated
Jan 8
New Moon
Jan 15
First Quarter
Jan 22
Full
Jan 30
Last Quarter
Feb 6
New

Hourly Weather History & Observations

Time (EST) Temp. Dew Point Humidity Pressure Visibility Wind Dir Wind Speed Gust Speed Precip Events Conditions
12:02 AM 53.6 °F 46.4 °F 77% 30.32 in 10.0 mi Calm Calm - N/A   Overcast
12:23 AM 53.6 °F 46.4 °F 77% 30.30 in 10.0 mi ENE 5.8 mph - N/A   Overcast
12:42 AM 53.6 °F 46.4 °F 77% 30.30 in 10.0 mi ENE 4.6 mph - N/A   Overcast
1:02 AM 53.6 °F 46.4 °F 77% 30.29 in 10.0 mi ENE 3.5 mph - N/A   Overcast
1:22 AM 53.6 °F 48.2 °F 82% 30.29 in 10.0 mi ENE 5.8 mph - N/A   Overcast
1:46 AM 57.2 °F 48.2 °F 72% 30.28 in 10.0 mi East 6.9 mph - N/A   Overcast
2:03 AM 57.2 °F 50.0 °F 77% 30.29 in 10.0 mi East 6.9 mph - N/A   Overcast
2:24 AM 57.2 °F 48.2 °F 72% 30.28 in 10.0 mi East 4.6 mph - N/A   Overcast
2:43 AM 57.2 °F 48.2 °F 72% 30.27 in 10.0 mi East 4.6 mph - N/A   Overcast
3:03 AM 55.4 °F 48.2 °F 77% 30.27 in 10.0 mi Calm Calm - N/A   Mostly Cloudy
3:23 AM 53.6 °F 46.4 °F 77% 30.27 in 10.0 mi Calm Calm - N/A   Mostly Cloudy
3:43 AM 51.8 °F 46.4 °F 82% 30.26 in 10.0 mi Calm Calm - N/A   Mostly Cloudy
4:04 AM 50.0 °F 46.4 °F 87% 30.26 in 10.0 mi East 3.5 mph - N/A   Scattered Clouds
4:23 AM 55.4 °F 50.0 °F 82% 30.25 in 10.0 mi East 4.6 mph - N/A   Mostly Cloudy
6:02 AM 59.0 °F 51.8 °F 77% 30.25 in 10.0 mi ESE 3.5 mph - N/A   Overcast
6:23 AM 57.2 °F 51.8 °F 82% 30.25 in 10.0 mi East 3.5 mph - N/A   Overcast
6:43 AM 57.2 °F 51.8 °F 82% 30.26 in 10.0 mi Calm Calm - N/A   Light Drizzle
7:04 AM 57.2 °F 51.8 °F 82% 30.26 in 10.0 mi East 4.6 mph - N/A   Overcast
7:23 AM 59.0 °F 51.8 °F 77% 30.27 in 10.0 mi SSE 4.6 mph - N/A   Overcast
7:43 AM 59.0 °F 51.8 °F 77% 30.27 in 10.0 mi Calm Calm - N/A   Overcast
8:03 AM 59.0 °F 51.8 °F 77% 30.27 in 10.0 mi East 3.5 mph - N/A   Overcast
8:22 AM 59.0 °F 51.8 °F 77% 30.28 in 10.0 mi Calm Calm - N/A   Overcast
8:42 AM 59.0 °F 51.8 °F 77% 30.28 in 10.0 mi Calm Calm - N/A   Overcast
9:06 AM 60.8 °F 51.8 °F 72% 30.29 in 10.0 mi Calm Calm - N/A   Overcast
9:22 AM 60.8 °F 51.8 °F 72% 30.29 in 10.0 mi SSE 5.8 mph - N/A   Overcast
9:42 AM 60.8 °F 51.8 °F 72% 30.29 in 10.0 mi SSE 4.6 mph - N/A   Overcast
10:02 AM 60.8 °F 51.8 °F 72% 30.30 in 10.0 mi SSE 4.6 mph - N/A   Overcast
10:23 AM 60.8 °F 51.8 °F 72% 30.30 in 10.0 mi SSE 3.5 mph - N/A   Overcast
11:02 AM 62.6 °F 51.8 °F 68% 30.28 in 10.0 mi South 6.9 mph - N/A   Overcast
11:22 AM 62.6 °F 51.8 °F 68% 30.27 in 10.0 mi SSE 5.8 mph - N/A   Overcast
12:44 PM 62.6 °F 51.8 °F 68% 30.22 in 10.0 mi ESE 8.1 mph - N/A   Overcast
1:23 PM 62.6 °F 51.8 °F 68% 30.19 in 10.0 mi ESE 5.8 mph - N/A   Overcast
2:22 PM 62.6 °F 51.8 °F 68% 30.17 in 10.0 mi ESE 6.9 mph - N/A   Overcast
2:42 PM 62.6 °F 51.8 °F 68% 30.16 in 10.0 mi ESE 6.9 mph - N/A   Overcast
4:22 PM 62.6 °F 51.8 °F 68% 30.15 in 10.0 mi East 3.5 mph - N/A   Overcast
4:45 PM 62.6 °F 51.8 °F 68% 30.15 in 10.0 mi SE 3.5 mph - N/A   Overcast
5:04 PM 62.6 °F 51.8 °F 68% 30.14 in 10.0 mi SE 5.8 mph - N/A   Mostly Cloudy
5:42 PM 62.6 °F 51.8 °F 68% 30.14 in 10.0 mi South 4.6 mph - N/A   Overcast
6:03 PM 62.6 °F 51.8 °F 68% 30.14 in 10.0 mi SSE 5.8 mph - N/A   Overcast
6:24 PM 62.6 °F 51.8 °F 68% 30.13 in 10.0 mi Calm Calm - N/A   Overcast
7:02 PM 60.8 °F 51.8 °F 72% 30.14 in 10.0 mi SE 6.9 mph - N/A   Mostly Cloudy
7:25 PM 60.8 °F 51.8 °F 72% 30.14 in 10.0 mi SSE 8.1 mph - N/A   Unknown
7:42 PM 62.6 °F 51.8 °F 68% 30.12 in 10.0 mi SSE 10.4 mph - N/A   Clear
8:02 PM 62.6 °F 51.8 °F 68% 30.11 in 10.0 mi SSE 10.4 mph 16.1 mph N/A   Clear
8:23 PM 62.6 °F 51.8 °F 68% 30.11 in 10.0 mi SSE 5.8 mph 9.2 mph N/A   Clear
8:42 PM 62.6 °F 51.8 °F 68% 30.11 in 10.0 mi SSE 5.8 mph - N/A   Scattered Clouds
9:02 PM 62.6 °F 51.8 °F 68% 30.09 in 10.0 mi SSE 5.8 mph 16.1 mph N/A   Scattered Clouds
9:23 PM 62.6 °F 50.0 °F 63% 30.07 in 10.0 mi South 10.4 mph 17.3 mph N/A   Scattered Clouds
9:43 PM 64.4 °F 51.8 °F 64% 30.08 in 10.0 mi South 9.2 mph 17.3 mph N/A   Mostly Cloudy
10:03 PM 64.4 °F 51.8 °F 64% 30.07 in 10.0 mi SSE 6.9 mph 18.4 mph N/A   Overcast
10:24 PM 64.4 °F 51.8 °F 64% 30.07 in 10.0 mi SSE 9.2 mph - N/A   Overcast
11:05 PM 64.4 °F 51.8 °F 64% 30.06 in 10.0 mi SSE 9.2 mph 20.7 mph N/A   Overcast